Date String (YYYY-MM-DD hh:mm:ss) UTC,Instrument flags,Ambient pressure (hPa),Sample flow (lpm),Bypass flow (lpm),Sample temperature (°C),Ambient temperature (°C),ASC tube jacket temperature (°C),LED temperature (°C),Box temperature (°C),Sample RH (%),Span deviation,Mass concentration (μg/m³),Mass concentration (μg/m³),Mass concentration (μg/m³)
DateTimeUTC,F1_M11,P_M11,Q1_M11,Q2_M11,T1_M11,T2_M11,T3_M11,T4_M11,T5_M11,U1_M11,ZSPAN_M11,X0_M11,X2_M11,X1_M11
2022-07-15 22:00:00,,0830.8,4.99,0.00,29.3,27.0,00.0,37.8,31.2,28.8,0000.0,0009.74,0003.98,0003.43
2022-07-15 22:01:00,,0830.7,5.00,0.00,29.2,26.9,00.0,37.8,31.1,28.8,0000.0,0009.93,0003.94,0003.41
2022-07-15 22:02:00,,0830.8,5.01,0.00,29.2,27.0,00.0,37.9,31.0,28.7,0000.0,0009.83,0003.94,0003.40
2022-07-15 22:03:00,,0830.7,4.99,0.00,29.1,27.2,00.0,37.9,31.0,28.2,0000.0,0009.73,0003.91,0003.38
2022-07-15 22:04:00,,0830.7,5.00,0.00,29.1,27.4,00.0,37.9,31.0,27.8,0000.0,0009.47,0003.87,0003.33
2022-07-15 22:05:00,,0830.7,5.00,0.00,29.2,27.6,00.0,37.9,31.1,27.5,0000.0,0009.23,0003.81,0003.28
2022-07-15 22:06:00,,0830.6,5.00,0.00,29.2,27.8,00.0,37.9,31.1,26.8,0000.0,0009.13,0003.79,0003.23
2022-07-15 22:07:00,,0830.6,5.00,0.00,29.2,28.0,00.0,37.9,31.2,26.5,0000.0,0009.88,0003.75,0003.18
2022-07-15 22:08:00,,0830.6,5.00,0.00,29.3,28.1,00.0,37.9,31.3,25.9,0000.0,0009.20,0003.66,0003.14
2022-07-15 22:09:00,,0830.6,5.00,0.00,29.3,28.0,00.0,37.9,31.3,25.9,0000.0,0008.97,0003.59,0003.05
2022-07-15 22:10:00,,0830.6,5.01,0.00,29.3,27.2,00.0,37.9,31.2,25.9,0000.0,0009.29,0003.53,0002.98
2022-07-15 22:11:00,,0830.6,5.01,0.00,29.2,26.8,00.0,37.8,31.1,25.7,0000.0,0009.15,0003.46,0002.91
2022-07-15 22:12:00,,0830.6,5.00,0.00,29.2,26.8,00.0,37.8,31.0,25.9,0000.0,0008.74,0003.39,0002.83
2022-07-15 22:13:00,,0830.5,5.00,0.00,29.1,27.0,00.0,37.8,30.9,25.8,0000.0,0008.78,0003.34,0002.76
2022-07-15 22:14:00,,0830.5,5.00,0.00,29.1,27.2,00.0,37.8,31.0,25.8,0000.0,0008.80,0003.32,0002.70
2022-07-15 22:15:00,,0830.5,5.01,0.00,29.1,27.4,00.0,37.8,31.0,25.8,0000.0,0008.73,0003.29,0002.66
2022-07-15 22:16:00,,0830.5,5.01,0.00,29.1,27.6,00.0,37.9,31.1,25.6,0000.0,0008.46,0003.27,0002.65
2022-07-15 22:17:00,,0830.5,5.00,0.00,29.2,27.8,00.0,37.9,31.1,25.7,0000.0,0008.14,0003.26,0002.65
2022-07-15 22:18:00,,0830.5,5.00,0.00,29.2,28.0,00.0,37.9,31.2,25.6,0000.0,0007.25,0003.24,0002.65
2022-07-15 22:19:00,,0830.5,5.00,0.00,29.2,28.1,00.0,37.9,31.2,25.5,0000.0,0007.47,0003.25,0002.66
2022-07-15 22:20:00,,0830.6,5.00,0.00,29.3,28.1,00.0,37.9,31.3,25.6,0000.0,0006.88,0003.25,0002.67
2022-07-15 22:21:00,,0830.5,5.00,0.00,29.3,27.4,00.0,37.9,31.2,25.6,0000.0,0005.77,0003.23,0002.68
2022-07-15 22:22:00,,0830.6,5.00,0.00,29.3,26.9,00.0,37.8,31.1,25.6,0000.0,0005.85,0003.25,0002.69
2022-07-15 22:23:00,,0830.6,4.99,0.00,29.2,26.9,00.0,37.8,31.0,25.8,0000.0,0005.77,0003.24,0002.68
2022-07-15 22:24:00,,0830.6,5.00,0.00,29.2,27.0,00.0,37.8,31.0,25.9,0000.0,0005.43,0003.22,0002.68
2022-07-15 22:25:00,,0830.5,5.00,0.00,29.1,27.2,00.0,37.8,31.0,26.1,0000.0,0005.41,0003.20,0002.69
2022-07-15 22:26:00,,0830.6,5.00,0.00,29.1,27.4,00.0,37.8,31.0,26.2,0000.0,0005.69,0003.19,0002.67
2022-07-15 22:27:00,,0830.5,4.99,0.00,29.1,27.6,00.0,37.8,31.1,26.2,0000.0,0005.65,0003.18,0002.67
2022-07-15 22:28:00,,0830.5,5.01,0.00,29.2,27.8,00.0,37.9,31.1,26.0,0000.0,0005.51,0003.15,0002.65
2022-07-15 22:29:00,,0830.6,5.00,0.00,29.2,27.9,00.0,37.9,31.2,25.2,0000.0,0005.50,0003.18,0002.67
2022-07-15 22:30:00,,0830.6,5.00,0.00,29.2,28.1,00.0,37.9,31.2,26.1,0000.0,0004.92,0003.17,0002.68
2022-07-15 22:31:00,,0830.6,5.00,0.00,29.3,28.2,00.0,37.9,31.3,26.6,0000.0,0004.93,0003.17,0002.67
2022-07-15 22:32:00,,0830.6,5.00,0.00,29.3,27.6,00.0,37.9,31.3,26.5,0000.0,0004.92,0003.16,0002.65
2022-07-15 22:33:00,,0830.5,5.02,0.00,29.3,27.0,00.0,37.8,31.1,26.5,0000.0,0004.78,0003.12,0002.62
2022-07-15 22:34:00,,0830.5,5.00,0.00,29.2,26.8,00.0,37.8,31.1,26.7,0000.0,0004.80,0003.10,0002.58
2022-07-15 22:35:00,,0830.4,5.00,0.00,29.1,26.9,00.0,37.8,30.9,26.6,0000.0,0004.80,0003.06,0002.55
2022-07-15 22:36:00,,0830.4,5.01,0.00,29.1,27.1,00.0,37.8,30.9,26.6,0000.0,0004.53,0003.00,0002.52
2022-07-15 22:37:00,,0830.4,5.01,0.00,29.1,27.3,00.0,37.8,31.0,26.8,0000.0,0004.11,0002.99,0002.50
2022-07-15 22:38:00,,0830.4,4.99,0.00,29.1,27.5,00.0,37.8,31.0,26.6,0000.0,0004.71,0002.99,0002.48
2022-07-15 22:39:00,,0830.4,5.01,0.00,29.1,27.7,00.0,37.9,31.1,26.7,0000.0,0005.15,0003.02,0002.48
2022-07-15 22:40:00,,0830.4,4.99,0.00,29.2,27.9,00.0,37.9,31.2,26.3,0000.0,0005.64,0002.95,0002.44
2022-07-15 22:41:00,,0830.3,5.01,0.00,29.2,28.0,00.0,37.9,31.2,25.8,0000.0,0006.50,0002.95,0002.45
2022-07-15 22:42:00,,0830.3,4.99,0.00,29.3,28.1,00.0,37.9,31.3,25.8,0000.0,0006.93,0002.99,0002.49
2022-07-15 22:43:00,,0830.2,5.00,0.00,29.3,27.7,00.0,37.9,31.2,25.9,0000.0,0007.21,0003.05,0002.53
2022-07-15 22:44:00,,0830.3,5.01,0.00,29.2,26.9,00.0,37.8,31.1,26.0,0000.0,0007.71,0003.13,0002.59
2022-07-15 22:45:00,,0830.3,5.00,0.00,29.2,26.7,00.0,37.8,31.0,26.1,0000.0,0007.81,0003.21,0002.72
2022-07-15 22:46:00,,0830.2,4.99,0.00,29.1,26.8,00.0,37.8,30.9,26.1,0000.0,0007.98,0003.31,0002.84
2022-07-15 22:47:00,,0830.3,5.01,0.00,29.1,27.0,00.0,37.8,30.9,26.9,0000.0,0008.11,0003.39,0002.92
2022-07-15 22:48:00,,0830.2,5.00,0.00,29.1,27.2,00.0,37.8,30.9,27.4,0000.0,0008.10,0003.40,0002.97
2022-07-15 22:49:00,,0830.2,4.99,0.00,29.1,27.4,00.0,37.8,31.0,26.8,0000.0,0007.85,0003.42,0003.04
2022-07-15 22:50:00,,0830.3,5.00,0.00,29.1,27.6,00.0,37.8,31.0,27.9,0000.0,0007.74,0003.44,0003.08
2022-07-15 22:51:00,,0830.2,5.00,0.00,29.1,27.8,00.0,37.8,31.1,28.4,0000.0,0007.77,0003.45,0003.09
2022-07-15 22:52:00,,0830.2,5.00,0.00,29.2,28.0,00.0,37.9,31.2,28.4,0000.0,0007.21,0003.45,0003.08
2022-07-15 22:53:00,,0830.2,5.00,0.00,29.2,28.1,00.0,37.9,31.2,28.4,0000.0,0006.83,0003.45,0003.04
2022-07-15 22:54:00,,0830.2,5.00,0.00,29.3,28.1,00.0,37.9,31.3,28.7,0000.0,0006.74,0003.43,0002.99
2022-07-15 22:55:00,,0830.2,5.00,0.00,29.3,27.5,00.0,37.8,31.2,28.8,0000.0,0005.93,0003.39,0002.92
2022-07-15 22:56:00,,0830.3,5.01,0.00,29.2,27.0,00.0,37.8,31.1,28.2,0000.0,0005.68,0003.32,0002.81
2022-07-15 22:57:00,,0830.2,4.99,0.00,29.2,26.8,00.0,37.8,31.0,28.0,0000.0,0005.36,0003.22,0002.68
2022-07-15 22:58:00,,0830.3,5.00,0.00,29.1,26.9,00.0,37.8,30.9,27.4,0000.0,0005.10,0003.13,0002.58
2022-07-15 22:59:00,,0830.2,5.00,0.00,29.1,27.1,00.0,37.8,30.9,27.8,0000.0,0005.09,0003.08,0002.52
